This is the latest recevied weather packets stored in our database for station/object SP9SOY-2. If no packets are shown the sender has not sent any weather packets the latest 10 day(s).
| Time | Temp. | Humidity | Pressure | Rain* | Wind** | Luminosity | Snow |
|---|---|---|---|---|---|---|---|
| 1777822032 | 22.22° C | 14% | - | - | - | 404 W/m² | - |
| 1777820236 | 22.22° C | 14% | - | - | - | 538 W/m² | - |
| 1777818433 | 22.22° C | 14% | - | - | - | 827 W/m² | - |
| 1777816636 | 22.22° C | 14% | - | - | - | 1116 W/m² | - |
| 1777814835 | 22.22° C | 14% | - | - | - | 971 W/m² | - |
| 1777813030 | 22.22° C | 14% | - | - | - | 826 W/m² | - |
| 1777811234 | 21.67° C | 14% | - | - | - | 903 W/m² | - |
| 1777809433 | 21.67° C | 14% | - | - | - | 980 W/m² | - |
| 1777807630 | 22.22° C | 14% | - | - | - | 1048 W/m² | - |
| 1777805835 | 21.67° C | 14% | - | - | - | 1116 W/m² | - |
| 1777804034 | 21.67° C | 14% | - | - | - | 1073 W/m² | - |
| 1777802234 | 21.11° C | 14% | - | - | - | 1030 W/m² | - |
| 1777800431 | 20.56° C | 14% | - | - | - | 998 W/m² | - |
| 1777798631 | 20° C | 15% | - | - | - | 966 W/m² | - |
| 1777796837 | 19.44° C | 15% | - | - | - | 774 W/m² | - |
| 1777795031 | 18.89° C | 15% | - | - | - | 582 W/m² | - |
| 1777793232 | 18.33° C | 15% | - | - | - | 471 W/m² | - |
| 1777791429 | 17.78° C | 18% | - | - | - | 360 W/m² | - |
| 1777789630 | 16.67° C | 19% | - | - | - | 235 W/m² | - |
| 1777787834 | 15.56° C | 19% | - | - | - | 110 W/m² | - |
| 1777786031 | 15.56° C | 22% | - | - | - | 55 W/m² | - |
| 1777759035 | 11.67° C | 18% | - | - | - | 0 W/m² | - |
| 1777757232 | 11.67° C | 18% | - | - | - | 0 W/m² | - |
| 1777755434 | 12.78° C | 18% | - | - | - | 0 W/m² | - |
| 1777753631 | 13.33° C | 17% | - | - | - | 0 W/m² | - |
* Rain since midnight (hover to see other rain measurements)
** Current wind speed in m/s (hover to see current wind gust speed)